Simultaneous Nadir Overpasses (SNOs) Predictions

Prediction of SNOs between AQUA and METOP-A Satellite Orbit:

Table of predicted SNOs for the next 14.0 days since TLE Epoch: 11/10/2018
Index Date (AQUA) Time (AQUA) Lat,Lon (AQUA) SZA (AQUA ) Date (METOP-A) Time (METOP-A) Lat,Lon (METOP-A) SZA (METOP-A ) Distance(km) Time Diff (sec)
1 11/11/2018 16:26:39 -74.62, 105.78 87.92 11/11/2018 16:25:26 -74.60, 105.74 87.92 1.81 73
2 11/11/2018 17:16:07 74.68, -86.74 92.17 11/11/2018 17:16:04 74.70, -86.68 92.19 2.92 3
3 11/11/2018 18:05:34 -74.71, 80.81 87.79 11/11/2018 18:06:45 -74.72, 80.71 87.79 3.12 71
4 11/14/2018 12:00:53 -74.63, 172.19 87.15 11/14/2018 11:59:41 -74.64, 172.23 87.14 1.33 72
5 11/14/2018 12:50:21 74.70, -20.34 92.94 11/14/2018 12:50:20 74.68, -20.33 92.92 2.34 1
6 11/14/2018 13:39:48 -74.73, 147.22 87.03 11/14/2018 13:41:00 -74.75, 147.20 87.01 2.56 72
7 11/17/2018 07:35:06 -74.60,-121.30 86.47 11/17/2018 07:33:57 -74.62,-121.42 86.45 3.93 69
8 11/17/2018 08:24:34 74.67, 46.17 93.62 11/17/2018 08:24:35 74.70, 46.14 93.65 3.47 1
9 11/17/2018 09:14:02 -74.75,-146.39 86.29 11/17/2018 09:15:15 -74.78,-146.32 86.27 4.06 73
10 11/20/2018 03:09:19 -74.63, -54.92 85.77 11/20/2018 03:08:11 -74.64, -54.94 85.75 1.69 68
11 11/20/2018 03:58:47 74.70, 112.54 94.31 11/20/2018 03:58:49 74.72, 112.61 94.34 3.25 2
12 11/20/2018 04:48:16 -74.83, -80.15 85.55 11/20/2018 04:49:28 -74.86, -79.70 85.53 13.20 72
13 11/22/2018 22:43:33 -74.66, 11.44 85.12 11/22/2018 22:42:26 -74.67, 11.53 85.11 2.62 67
14 11/22/2018 23:33:00 74.68, 179.03 94.92 11/22/2018 23:33:05 74.69, 178.94 94.93 2.92 5




NCC Satellite Simultaneous Nadir Overpasses (SNOs) Prediction Service
